Change the Weather History Date:

Friday, February 7, 2014

  Actual Average Record
Temperature  
Mean Temperature 7 °F -  
Max Temperature 16 °F 35 °F 47 °F (2015)
Min Temperature -2 °F 20 °F -2 °F (2014)
Degree Days  
Heating Degree Days 58    
Moisture  
Dew Point 5 °F    
Average Humidity 79    
Maximum Humidity 92    
Minimum Humidity 61    
Precipitation  
Precipitation 0.00 in - - ()
Sea Level Pressure  
Sea Level Pressure 30.06 in    
Wind  
Wind Speed 5 mph ()    
Max Wind Speed 10 mph    
Max Gust Speed -    
Visibility 6.1 miles    
Events Snow    
Averages and records for this station are not official NWS values.
T = Trace of Precipitation, MM = Missing Value Source: Averaged Metar Reports

Daily Weather History Graph

Daily Weather History Graph

Search for Another Location

Airport or City:

Trip Planner

Search our weather history database for the weather conditions in past years. The results will help you decide how hot, cold, wet, or windy it might be!

Date:

Astronomy

Feb. 07, 2014 Rise Set
Actual Time 7:21 AM PST 5:02 PM PST
Civil Twilight 6:47 AM PST 5:36 PM PST
Nautical Twilight 6:09 AM PST 6:15 PM PST
Astronomical Twilight 5:31 AM PST 6:52 PM PST
Moon 11:10 AM PST (2/7) 1:47 AM PST (2/7)
Length of Visible Light 10h 49m
Length of Day
9h 41m
First Quarter, 60% of the Moon is Illuminated
Feb 7
First Quarter
Feb 14
Full
Feb 22
Last Quarter
Mar 1
New
Mar 8
First Quarter

Hourly Weather History & Observations

Time (PST) Temp. Windchill Dew Point Humidity Pressure Visibility Wind Dir Wind Speed Gust Speed Precip Events Conditions
12:00 AM 5.0 °F -2.1 °F -0.4 °F 78% 30.02 in 9.0 mi North 3.5 mph - N/A   Overcast
1:00 AM 6.8 °F - 1.4 °F 79% 30.01 in 9.0 mi NNW 2.3 mph - N/A   Overcast
2:00 AM 6.8 °F - 1.4 °F 79% 30.00 in 9.0 mi Calm Calm - N/A   Overcast
3:00 AM 8.6 °F - 3.2 °F 79% 29.98 in 9.0 mi Calm Calm - N/A   Overcast
3:11 AM 8.6 °F - 3.2 °F 79% 29.98 in 9.0 mi NE 2.3 mph - N/A Snow Light Snow
3:35 AM 8.6 °F - 3.2 °F 79% 29.98 in 5.0 mi Calm Calm - N/A Snow Light Snow
3:48 AM 8.6 °F - 3.2 °F 79% 29.98 in 2.5 mi ENE 2.3 mph - N/A Snow Light Snow
4:00 AM 9 °F - 4 °F 73% 29.99 in 2 mi NE 2.3 mph - - Snow Light Snow
4:00 AM 8.6 °F 2.0 °F 5.0 °F 85% 29.98 in 1.8 mi NE 3.5 mph - N/A Snow Light Snow
5:00 AM 8.6 °F 0.1 °F 6.8 °F 92% 29.98 in 1.8 mi North 4.6 mph - N/A Snow Light Snow
6:00 AM 10.4 °F -1.5 °F 6.8 °F 85% 29.99 in 1.5 mi North 8.1 mph - N/A Snow Light Snow
6:45 AM 10.4 °F -2.4 °F 6.8 °F 85% 30.00 in 3.0 mi North 9.2 mph - N/A Snow Light Snow
7:00 AM 10.4 °F -1.5 °F 6.8 °F 85% 30.00 in 3.0 mi North 8.1 mph - N/A Snow Light Snow
8:00 AM 10.4 °F -2.4 °F 6.8 °F 85% 30.03 in 3.0 mi North 9.2 mph - N/A Snow Light Snow
8:01 AM 10.4 °F -2.4 °F 6.8 °F 85% 30.03 in 2.2 mi North 9.2 mph - N/A Snow Light Snow
8:57 AM 10.4 °F -1.5 °F 6.8 °F 85% 30.05 in 3.0 mi North 8.1 mph - N/A Snow Light Snow
9:00 AM 10.4 °F -3.3 °F 6.8 °F 85% 30.05 in 3.0 mi North 10.4 mph - N/A Snow Light Snow
9:59 AM 10.4 °F -2.4 °F 6.8 °F 85% 30.07 in 6.0 mi North 9.2 mph - N/A Snow Light Snow
10:00 AM 11 °F - 6 °F 74% 30.06 in 6 mi North 9.2 mph - - Snow Light Snow
10:00 AM 10.4 °F -3.3 °F 6.8 °F 85% 30.06 in 6.0 mi North 10.4 mph - N/A Snow Light Snow
10:46 AM 12.2 °F -0.2 °F 6.8 °F 79% 30.08 in 5.0 mi North 9.2 mph - N/A Snow Light Snow
10:50 AM 12.2 °F -0.2 °F 6.8 °F 79% 30.08 in 6.0 mi North 9.2 mph - N/A Snow Light Snow
11:00 AM 12.2 °F 0.7 °F 6.8 °F 79% 30.08 in 8.0 mi North 8.1 mph - N/A Snow Light Snow
11:05 AM 12.2 °F -0.2 °F 6.8 °F 79% 30.08 in 9.0 mi North 9.2 mph - N/A   Overcast
11:13 AM 12.2 °F -0.2 °F 6.8 °F 79% 30.08 in 9.0 mi North 9.2 mph - N/A Snow Light Snow
11:16 AM 12.2 °F -0.2 °F 6.8 °F 79% 30.08 in 5.0 mi North 9.2 mph - N/A Snow Light Snow
11:23 AM 12.2 °F -0.2 °F 6.8 °F 79% 30.08 in 2.5 mi North 9.2 mph - N/A Snow Light Snow
11:29 AM 12.2 °F -1.0 °F 8.6 °F 85% 30.08 in 3.0 mi NNW 10.4 mph - N/A Snow Light Snow
11:41 AM 12.2 °F 0.7 °F 8.6 °F 85% 30.09 in 6.0 mi North 8.1 mph - N/A Snow Light Snow
12:00 PM 12.2 °F 0.7 °F 8.6 °F 85% 30.08 in 8.0 mi North 8.1 mph - N/A Snow Light Snow
12:11 PM 12.2 °F 1.7 °F 8.6 °F 85% 30.08 in 5.0 mi North 6.9 mph - N/A Snow Light Snow
12:25 PM 14.0 °F 5.1 °F 8.6 °F 79% 30.08 in 2.5 mi North 5.8 mph - N/A Snow Light Snow
12:27 PM 14.0 °F 5.1 °F 8.6 °F 79% 30.08 in 1.2 mi North 5.8 mph - N/A Snow Light Snow
12:36 PM 14.0 °F 6.5 °F 6.8 °F 73% 30.08 in 1.5 mi North 4.6 mph - N/A Snow Light Snow
12:40 PM 14.0 °F 6.5 °F 6.8 °F 73% 30.08 in 3.0 mi North 4.6 mph - N/A Snow Light Snow
12:43 PM 14.0 °F 5.1 °F 6.8 °F 73% 30.08 in 8.0 mi North 5.8 mph - N/A   Mostly Cloudy
1:00 PM 14.0 °F 6.5 °F 6.8 °F 73% 30.07 in 9.0 mi North 4.6 mph - N/A   Partly Cloudy
2:00 PM 14.0 °F 5.1 °F 6.8 °F 73% 30.07 in 9.0 mi North 5.8 mph - N/A   Partly Cloudy
3:00 PM 15.8 °F 7.2 °F 6.8 °F 68% 30.07 in 9.0 mi North 5.8 mph - N/A   Clear
3:22 PM 15.8 °F 6.1 °F 6.8 °F 68% 30.08 in 5.0 mi North 6.9 mph - N/A   Haze
3:23 PM 15.8 °F 7.2 °F 6.8 °F 68% 30.08 in 5.0 mi North 5.8 mph - N/A Snow Light Snow
3:31 PM 15.8 °F 6.1 °F 8.6 °F 73% 30.08 in 8.0 mi NNW 6.9 mph - N/A Snow Light Snow
3:33 PM 15.8 °F 6.1 °F 6.8 °F 68% 30.08 in 9.0 mi NNW 6.9 mph - N/A   Clear
4:00 PM 15 °F - 8 °F 61% 30.09 in 10 mi NNW 5.8 mph - -  
4:00 PM 15.8 °F 7.2 °F 6.8 °F 68% 30.09 in 9.0 mi NNW 5.8 mph - N/A   Clear
5:00 PM 12.2 °F - 6.8 °F 79% 30.09 in 9.0 mi Variable 2.3 mph - N/A   Clear
6:00 PM 5.0 °F - 3.2 °F 92% 30.10 in 9.0 mi North 2.3 mph - N/A   Clear
7:00 PM 3.2 °F -4.2 °F 1.4 °F 92% 30.11 in 9.0 mi North 3.5 mph - N/A   Clear
8:00 PM 1.4 °F - -2.2 °F 85% 30.12 in 9.0 mi NNE 2.3 mph - N/A   Clear
9:00 PM 1.4 °F -9.9 °F -2.2 °F 85% 30.12 in 9.0 mi North 5.8 mph - N/A   Clear
10:00 PM -2 °F - -5 °F 79% 30.15 in 10 mi North 1.2 mph - -  
10:00 PM -2.2 °F - -5.8 °F 85% 30.15 in 9.0 mi Variable 2.3 mph - N/A   Clear
11:00 PM -0.4 °F -8.3 °F -4.0 °F 85% 30.17 in 9.0 mi NNE 3.5 mph - N/A   Clear